Location: Unspecified
(41.1637°N, 24.2901°E)
Time: 14:40:25
(UTC+01:00)

ISS - Pass Details

Date: 20 January 2021
Orbit: 418 x 421 km, 51.6° (Epoch: 27 January)

Event Time Altitude Azimuth Distance (km) Brightness Sun altitude
Rises 17:03:17 0° 215° (SW) 2,354 1.1 -7.5°
Reaches altitude 10° 17:05:26 10° 208° (SSW) 1,495 -0.2 -7.9°
Maximum altitude 17:08:36 39° 138° (SE) 643 -3.0 -8.4°
Enters shadow 17:11:24 13° 70° (ENE) 1,361 -1.9 -8.9°
